This is the latest recevied weather packets stored in our database for station/object N7CW. If no packets are shown the sender has not sent any weather packets the latest 10 day(s).
| Time | Temp. | Humidity | Pressure | Rain* | Wind** | Luminosity | Snow |
|---|---|---|---|---|---|---|---|
| 1777625991 | 10.56° C | 29% | 1014 hPa | 0 mm | - | 0 W/m² | - |
| 1777625686 | 10.56° C | 29% | 1013.9 hPa | 0 mm | - | 0 W/m² | - |
| 1777625382 | 10.56° C | 28% | 1013.9 hPa | 0 mm | - | 0 W/m² | - |
| 1777625079 | 10.56° C | 28% | 1014.2 hPa | 0 mm | - | 0 W/m² | - |
| 1777624775 | 11.67° C | 27% | 1014.2 hPa | 0 mm | - | 0 W/m² | - |
| 1777624470 | 11.67° C | 27% | 1014.2 hPa | 0 mm | - | 0 W/m² | - |
| 1777624168 | 12.22° C | 26% | 1014 hPa | 0 mm | - | 0 W/m² | - |
| 1777623864 | 12.78° C | 26% | 1014.1 hPa | 0 mm | - | 0 W/m² | - |
| 1777623560 | 12.78° C | 25% | 1014.1 hPa | 0 mm | - | 0 W/m² | - |
| 1777623259 | 12.78° C | 25% | 1013.9 hPa | 0 mm | - | 0 W/m² | - |
| 1777622955 | 12.78° C | 25% | 1014 hPa | 0 mm | - | 0 W/m² | - |
| 1777622652 | 12.78° C | 25% | 1013.8 hPa | 0 mm | - | 0 W/m² | - |
| 1777622348 | 13.33° C | 25% | 1013.8 hPa | 0 mm | - | 0 W/m² | - |
| 1777622045 | 13.33° C | 25% | 1013.8 hPa | 0 mm | - | 0 W/m² | - |
| 1777621740 | 13.33° C | 25% | 1013.9 hPa | 0 mm | - | 0 W/m² | - |
| 1777621436 | 13.33° C | 25% | 1014 hPa | 0 mm | - | 0 W/m² | - |
| 1777621132 | 12.78° C | 25% | 1014 hPa | 0 mm | - | 0 W/m² | - |
| 1777620829 | 12.78° C | 25% | 1014.1 hPa | 0 mm | - | 0 W/m² | - |
| 1777620525 | 12.78° C | 26% | 1014 hPa | 0 mm | - | 0 W/m² | - |
| 1777620222 | 12.22° C | 26% | 1013.9 hPa | 0 mm | - | 0 W/m² | - |
| 1777619919 | 12.22° C | 26% | 1013.8 hPa | 0 mm | - | 0 W/m² | - |
| 1777619614 | 12.22° C | 26% | 1013.9 hPa | 0 mm | - | 0 W/m² | - |
| 1777619310 | 12.78° C | 26% | 1013.9 hPa | 0 mm | - | 0 W/m² | - |
| 1777619010 | 12.22° C | 26% | 1014.1 hPa | 0 mm | - | 0 W/m² | - |
| 1777618710 | 12.78° C | 26% | 1013.9 hPa | 0 mm | - | 0 W/m² | - |
* Rain latest hour (hover to see other rain measurements)
** Current wind speed in m/s (hover to see current wind gust speed)